Regional Weather Roundup
Issued by NWS Upton, NY

Home | Current Version | Previous Version | Text Only | Print | Product List | Glossary On
Versions: 1 2 3 4 5 6 7 8 9 10 11 12 13 14 15 16 17 18 19 20 21 22 23 24 25 26 27 28 29 30 31 32 33 34 35 36 37 38 39 40 41 42 43 44 45 46 47 48 49 50
584
ASUS41 KOKX 270104
RWROKX

REGIONAL WEATHER ROUNDUP
NATIONAL WEATHER SERVICE NEW YORK NY
900 PM EDT TUE JUL 26 2016

NOTE: "FAIR" INDICATES FEW OR NO CLOUDS BELOW 12,000 FEET WITH NO
SIGNIFICANT WEATHER AND/OR OBSTRUCTIONS TO VISIBILITY.

NYZ071-072-176-178-NJZ106-104-270200-
NEW YORK CITY METRO AREA

CITY           SKY/WX    TMP DP  RH WIND       PRES   REMARKS
Central Park   PTCLDY    85  59  41 CALM      29.93R
LaGuardia APRT MOCLDY    86  61  42 NW13      29.88R
Kennedy INTL   MOCLDY    86  60  41 N13       29.90R
Newark/Liberty MOCLDY    86  61  42 N13       29.89R
Bronx Bot Gard   N/A     82  59  44 NW5       29.92R
Wall St Helipt PTCLDY    84  63  48 CALM      29.90R
Teterboro      CLEAR     84  59  42 NW7       29.88R
$$

NYZ177-179-078>081-270200-
LONG ISLAND NEW YORK

CITY           SKY/WX    TMP DP  RH WIND       PRES   REMARKS
Farmingdale    CLEAR     84  62  47 MISG      29.89R
MacArthur/ISP  MOCLDY    81  64  56 NW3       29.89R
Shirley        PTCLDY    79  64  60 CALM      29.90R
Riverhead      NOT AVBL
Westhampton    CLEAR     75  62  64 CALM      29.90R
Southhampton     N/A     79  68  69 NW2       29.84
Bridgehampton    N/A     77  64  65 CALM      29.86
East Hampton   FAIR      77  63  61 W3        29.87R
Montauk          N/A     80  64  58 W6        29.87R
$$

NYZ052-065-067-270200-
HUDSON VALLEY

CITY           SKY/WX    TMP DP  RH WIND       PRES   REMARKS
White Plains   CLEAR     78  62  57 NW6       29.91R
Newburgh       PTCLDY    77  64  65 NW7       29.93R
Montgomery     PTCLDY    76  64  66 CALM      29.92R
Poughkeepsie   PTCLDY    80  62  54 W3        29.90R
Albany         PTCLDY    78  61  55 W10       29.90R
$$

NJZ001-105-106-008-010-013-015-019>022-104-270200-
NEW JERSEY

CITY           SKY/WX    TMP DP  RH WIND       PRES   REMARKS
Newark/Liberty MOCLDY    86  61  42 N13       29.89R
Teterboro      CLEAR     84  59  42 NW7       29.88R
Caldwell       PTCLDY    83  62  49 NW3       29.91R
Morristown     MOCLDY    79  64  61 CALM      29.91R
Somerville     PTCLDY    83  67  58 N5        29.89R
Linden         FAIR      86  60  41 N6        29.91R
Sussex         CLEAR     73  65  75 CALM      29.94R
Abdover          N/A     73  64  73 CALM      29.94R
Trenton        PTCLDY    84  66  54 CALM      29.90R
Millville      MOCLDY    78  72  81 CALM      29.92S
Atlantic City  MOCLDY    84  71  65 W3        29.91S
Wrightstown    CLEAR     80  71  74 SW1       29.88R
Toms River     CLEAR     77  72  84 CALM      29.91R
Belmar         PTCLDY    81  69  67 W5        29.92R
$$

PAZ047>061-062-071-270200-
EASTERN PENNSYLVANIA

CITY           SKY/WX    TMP DP  RH WIND       PRES   REMARKS
Philadelphia   MOCLDY    86  71  60 SW8       29.91S HX  91
Allentown      MOCLDY    81  66  60 CALM      29.91R
Scranton       CLEAR     77  61  57 E5        29.95R
$$

CTZ002-004>006-009-010-012-RIZ004-006-007-MAZ004-011-015-270200-
SOUTHERN NEW ENGLAND
 IN CT

CITY           SKY/WX    TMP DP  RH WIND       PRES   REMARKS
Bradley INTL   PTCLDY    81  60  48 NW9       29.87R
Hartford       CLEAR     86  60  41 NW8       29.87R
Danbury        CLEAR     73  63  70 SW5       29.92R
Wtrbury/Oxford PTCLDY    75  61  60 N3        29.93R
Bridgeport     CLEAR     83  61  47 NW6       29.88R
Meriden        PTCLDY    81  60  48 CALM      29.88R
New Haven      PTCLDY    81  65  58 NW6       29.88R
Chester        FAIR      79  61  53 CALM      29.89R
Groton         CLOUDY    82  62  50 NW3       29.85R
Wilimantic     NOT AVBL

 IN RI

CITY           SKY/WX    TMP DP  RH WIND       PRES   REMARKS
Providence     PTCLDY    83  59  44 NW9       29.84R
Block Island   CLEAR     75  65  70 W7        29.86R
Westerly       PTCLDY    81  60  48 W3        29.86R
 IN MA

CITY           SKY/WX    TMP DP  RH WIND       PRES   REMARKS
Boston         PTCLDY    87  59  38 N13       29.83R
Worchester     CLEAR     76  58  53 NW12      29.90R
Westfield      CLEAR     80  60  50 NW7       29.88R
Provincetown   CLEAR     73  67  81 CALM      29.83R
Nantucket      MOCLDY    75  67  76 W10       29.83R
$$

ANZ330-335-338-340-345-350-353-355-270200-
COASTAL MARINE OBSERVATIONS


STATION/POSITION TIME  SKY/WX   TEMP    WIND        PRES    VSBY  WAVE
                                AIR SEA DIR/SP/G                  HT/PER
                 (UTC)          (F)     (DEG/KT/KT) (MB)    (MI)  (FT/S)
NY HARB ENTRANCE 2350            78 76  210/  8/ 10 1011.0          2/ 7
20S FIRE ISLAND  2350            78 76  230/ 14/ 16 1010.6          3/ 7
GREAT SOUTH BAY  0000            85 82  350/  6/ 10   N/A
23 SSW MONTAUK P 2350            74 70  250/ 10/ 12 1011.3          3/ 7
15 E BARNEGAT LI 0022               77                N/A           3/ 7
HUDSON CANYON    2350            79 78              1011.6          3/ 7
KINGS POINT      0000               72                N/A
EXECUTION ROCKS  0000            80     330/  6/  8   N/A
CENTRAL LI SOUND 0000            80 74  290/ 10/ 10   N/A           1/ 2
EASTERN LI SOUND 0000            72 67  260/  6/  8   N/A
ROBBINS REEF     0000            88                   N/A
$$


>>>>>>>>>>>>>>>>>>>>>>>>>>>> KEY <<<<<<<<<<<<<<<<<<<<<<<<<<<
>                                                          <
>     SKY/WX - Sky Condition/Present Weather               <
>     TMP    - Temperature in Fahrenheit                   <
>     DP     - Dew Point in Fahrenheit                     <
>     RH     - Relative Humidity in Percent                <
>     WIND   - Direction (from) and Speed in MPH           <
>     PRES   - Mean Sea Level Pressure (inches of Hg)      <
>     WCI    - Wind Chill Index                            <
>     VSB    - VISIBILITY IN MILES                         <
>     HX     - HEAT INDEX                                  <
>     TC     - TEMPERATURE IN CELSIUS                      <
>     VRB    - VARIABLE WIND DIRECTION                     <
>                                                          <
>>>>>>>>>>>>>>>>>>>>>>>>>>>> KEY <<<<<<<<<<<<<<<<<<<<<<<<<<<




USA.gov is the U.S. government's official web portal to all federal, state and local government web resources and services.